Miscellaneous Local Product
Issued by NWS Hastings, NE

Home | Current Version | Previous Version | Graphics & Text | Print | Product List | Glossary On
Versions: 1 2 3 4 5 6 7 8 9 10 11 12 13 14 15 16 17 18 19 20 21 22 23 24 25 26 27 28 29 30 31 32 33 34 35 36 37 38 39 40 41 42 43 44 45 46 47 48 49 50
000
AXUS43 KGID 301802
MISGRI

GID CWA HOURLY WEATHER ROUNDUP
NATIONAL WEATHER SERVICE HASTINGS NE
100 PM CDT SAT AUG 30 2014

NOTE: "FAIR" INDICATES FEW OR NO CLOUDS BELOW 12,000 FEET WITH NO
SIGNIFICANT WEATHER AND/OR OBSTRUCTIONS TO VISIBILITY.

...SOUTH CENTRAL NEBRASKA...

CITY           SKY/WX    TMP DP  RH WIND       PRES   REMARKS
GRAND ISLAND   SUNNY     78  61  55 S3        29.98F
HASTINGS       SUNNY     77  62  59 VRB6      29.97F
KEARNEY        SUNNY     77  64  65 SE8       29.98F
ORD            SUNNY     74  61  63 SE8       29.95F
YORK           SUNNY     77 N/A N/A E5        29.97S
AURORA         SUNNY     76  62  62 S5        29.98S
LEXINGTON      SUNNY     77  64  64 SE10      29.97F
HOLDREGE       SUNNY     77  64  63 SE9       29.97F
HEBRON         SUNNY     80  61  52 CALM      29.96F

...NEBRASKA PANHANDLE...

CITY           SKY/WX    TMP DP  RH WIND       PRES   REMARKS
CHADRON        SUNNY     84  54  35 S12       29.84F
ALLIANCE       SUNNY     80  56  43 S20G26    29.93F
SCOTTSBLUFF    SUNNY     83  55  38 E10       29.91F
SIDNEY         SUNNY     82  52  35 S14       29.98F

...WESTERN AND NORTH CENTRAL NEBRASKA...

CITY           SKY/WX    TMP DP  RH WIND       PRES   REMARKS
VALENTINE      SUNNY     78  60  53 S12       29.92F
AINSWORTH      SUNNY     74  61  64 SE10      29.94F
ONEILL         SUNNY     73  60  63 CALM      29.95F
BROKEN BOW     SUNNY     76  63  64 SE8G25    29.96F
IMPERIAL       SUNNY     79  59  50 SE14      29.96F
NORTH PLATTE   SUNNY     80  61  52 SE8       29.95F
MCCOOK         SUNNY     80  59  48 S9        29.96F

...EASTERN NEBRASKA...

CITY           SKY/WX    TMP DP  RH WIND       PRES   REMARKS
NORFOLK        SUNNY     75  59  57 VRB3      29.95F
SO SIOUX CITY  PTSUNNY   70  59  68 NW6       29.94F
TEKAMAH        SUNNY     76  64  66 NW7       29.94F
COLUMBUS       SUNNY     77  61  57 E3        29.96F
ALBION         SUNNY     73  60  63 S5        29.96F
OMAHA EPPLEY   MOSUNNY   74  65  73 NW6       29.94F
OFFUTT AFB     PTSUNNY   73  71  93 VRB5      29.94S
MILLARD        MOSUNNY   74  66  75 CALM      29.94S
LINCOLN        SUNNY     81  62  52 VRB3      29.95F
NEBRASKA CITY  MOSUNNY   80  66  63 W6        29.94S
BEATRICE       SUNNY     80  67  64 CALM      29.95F
FALLS CITY     MOSUNNY   83  69  62 CALM      29.93S

...NORTHERN KANSAS...

CITY           SKY/WX    TMP DP  RH WIND       PRES   REMARKS
GOODLAND       SUNNY     84  52  33 S16G22    30.00F
HILL CITY      SUNNY     85  59  41 SW12      29.96F
NORTON         CLEAR     81  55  41 SE10      29.95F
PHILLIPSBURG   SUNNY     82  63  51 SE10G17   29.96F
SMITH CENTER   SUNNY     81  63  54 SE7       29.96F
BELOIT         SUNNY     82  63  51 SE3       29.94F
HAYS           SUNNY     88  57  35 S13G22    29.96F
RUSSELL        SUNNY     84  62  47 S13G18    29.96F
CONCORDIA      SUNNY     81  64  56 VRB3      29.96F
SALINA         MOSUNNY   87  60  40 E3        29.96F
TOPEKA         SUNNY     87  68  52 N6        29.93F HX  90



USA.gov is the U.S. government's official web portal to all federal, state and local government web resources and services.